Terminal Aerodrome Forecast
Issued by NWS

Home | Current Version | Previous Version | Text Only | Print | Product List | Glossary On
Versions: 1 2 3 4 5 6 7 8 9 10 11 12 13 14 15 16 17 18 19 20 21 22 23 24 25 26 27 28 29 30 31 32 33 34 35 36 37 38 39 40 41 42 43 44 45 46
000
FTUS44 KBMX 300855 AAA
TAFASN
TAF AMD
KASN 300855Z 3009/3106 22007G15KT P6SM OVC015
     FM301100 20006KT 4SM -RA VCTS OVC005CB
      TEMPO 3011/3013 1SM +TSRA BR
     FM301400 27006KT P6SM OVC015
     FM301800 31006KT P6SM SCT250=

USA.gov is the U.S. government's official web portal to all federal, state and local government web resources and services.